Starlink 5989

operational
NORAD ID: 56781 Int'l Des: 2023-078 Owner: SPXS Country: US Constellation: starlink
LEOCIRCULAR

Über Starlink 5989

Beschreibung wird geladen...

Live-Position

3D-Globus wird geladen...

Nächste Überflüge

Höhenverlauf

Altitude vs Time

uPlot chart will show altitude changes over time

Zweizeiliger Elementsatz

1 56781U 23078Q 25259.88201561 -.00000442 00000-0 -29252-4 0 9997
2 56781 69.9999 62.7628 0002859 268.5600 91.5231 14.98325356126648
Epoch: 16. Sept. 2025 • Age: 27 hours

Aktueller Status

Höhe 583.9 km
Geschwindigkeit 7.57 km/s
Subsatellitenpunkt -35.75°S, 44.09°E
Startdatum 31. Mai 2023
Alter 2.2 years
Typ internet

Technische Details

Klassifizierung Payload
Masse 305.00 kg
Trockenmasse 290.00 kg
Gesamtmasse 305.00 kg
Länge 0.20 m
Durchmesser 2.80 m
Spannweite 9.00 m
Form Box + pan
Hersteller SPXS
Bus-Typ Starlink
Phasenstatus In Orbit
Besitzer/Staat SPXS/US

Große Konstellationen

Loading constellations...